QPF
0.01 0.00 0.01 0.01 0.01 0.01 0.01 0.01 0.01 0.01 0.01 0.01 0.06 0.06 0.02 0.01 0.01 0.01 0.01 0.01 0.01 0.00 0.01 0.02 0.03 0.03 0.03 0.04 0.04 0.04 0.04 0.03 0.03 0.03 0.03 0.02 0.02 0.02 0.01 0.01 0.01 0.01 0.01 0.02
0.01 0.00 0.00 0.00 0.00 0.00 0.01 0.01 0.01 0.01 0.01 0.02 0.01 0.01 0.01 0.01 0.01 0.01 0.01 0.00 0.00 0.01 0.00 0.00 0.01 0.01 0.01 0.01 0.02 0.03 0.03 0.04 0.03 0.03 0.02 0.01 0.01 0.01 0.01 0.01 0.01 0.01 0.01 0.02
0.01 0.01 0.01 0.01 0.00 0.00 0.00 0.00 0.01 0.01 0.01 0.01 0.01 0.01 0.01 0.01 0.01 0.02 0.02 0.01 0.01 0.01 0.00 0.00 0.00 0.01 0.01 0.01 0.01 0.02 0.03 0.03 0.02 0.02 0.02 0.01 0.01 0.02 0.01 0.01 0.01 0.01 0.02 0.02
0.01 0.02 0.02 0.01 0.01 0.01 0.01 0.01 0.01 0.01 0.01 0.02 0.02 0.01 0.01 0.01 0.01 0.01 0.02 0.01 0.01 0.01 0.01 0.01 0.01 0.01 0.01 0.01 0.01 0.02 0.02 0.02 0.02 0.02 0.02 0.01 0.01 0.01 0.01 0.01 0.01 0.00 0.00 0.00
0.01 0.02 0.03 0.02 0.02 0.02 0.02 0.01 0.02 0.02 0.01 0.01 0.02 0.01 0.01 0.01 0.01 0.01 0.01 0.01 0.01 0.01 0.01 0.02 0.02 0.01 0.01 0.01 0.01 0.02 0.02 0.01 0.01 0.02 0.02 0.02 0.01 0.01 0.01 0.01 0.01 0.01 0.01 0.00
0.02 0.02 0.02 0.03 0.02 0.02 0.03 0.03 0.03 0.02 0.02 0.01 0.01 0.01 0.01 0.01 0.01 0.01 0.01 0.00 0.01 0.02 0.02 0.02 0.02 0.02 0.02 0.02 0.02 0.02 0.02 0.01 0.01 0.01 0.01 0.01 0.01 0.01 0.01 0.01 0.01 0.01 0.01 0.01
0.02 0.02 0.02 0.02 0.01 0.01 0.03 0.03 0.02 0.03 0.02 0.01 0.01 0.01 0.01 0.01 0.01 0.01 0.00 0.00 0.01 0.02 0.02 0.03 0.02 0.02 0.02 0.02 0.02 0.02 0.02 0.01 0.01 0.01 0.00 0.01 0.01 0.01 0.01 0.02 0.02 0.02 0.02 0.02
0.02 0.02 0.02 0.01 0.01 0.02 0.03 0.03 0.03 0.02 0.02 0.01 0.01 0.01 0.01 0.01 0.01 0.01 0.01 0.00 0.00 0.01 0.03 0.04 0.03 0.02 0.01 0.01 0.01 0.01 0.01 0.02 0.01 0.01 0.00 0.01 0.01 0.01 0.02 0.02 0.03 0.03 0.04 0.04
0.02 0.03 0.03 0.02 0.02 0.02 0.03 0.03 0.02 0.02 0.02 0.02 0.01 0.01 0.01 0.01 0.01 0.01 0.01 0.01 0.00 0.00 0.00 0.01 0.01 0.01 0.01 0.01 0.01 0.01 0.01 0.02 0.01 0.01 0.01 0.01 0.01 0.02 0.03 0.03 0.03 0.03 0.04 0.04
0.02 0.04 0.03 0.01 0.01 0.01 0.02 0.02 0.02 0.02 0.02 0.03 0.02 0.02 0.01 0.02 0.02 0.02 0.02 0.01 0.01 0.01 0.01 0.01 0.01 0.01 0.00 0.00 0.00 0.00 0.01 0.01 0.02 0.01 0.01 0.01 0.02 0.03 0.04 0.04 0.04 0.04 0.04 0.03
0.01 0.03 0.03 0.01 0.01 0.01 0.01 0.01 0.01 0.02 0.03 0.04 0.04 0.03 0.03 0.04 0.03 0.03 0.02 0.01 0.01 0.01 0.01 0.00 0.00 0.01 0.00 0.00 0.00 0.01 0.01 0.01 0.01 0.01 0.02 0.03 0.04 0.05 0.05 0.06 0.06 0.05 0.04 0.04
0.01 0.01 0.02 0.03 0.01 0.01 0.01 0.01 0.01 0.02 0.02 0.03 0.03 0.04 0.03 0.02 0.02 0.02 0.02 0.01 0.01 0.00 0.00 0.00 0.00 0.00 0.00 0.00 0.00 0.01 0.01 0.02 0.02 0.02 0.02 0.03 0.04 0.04 0.05 0.05 0.04 0.03 0.04 0.04
0.00 0.00 0.00 0.01 0.01 0.01 0.01 0.01 0.01 0.01 0.02 0.02 0.02 0.02 0.02 0.02 0.01 0.01 0.01 0.01 0.01 0.00 0.00 0.00 0.00 0.00 0.00 0.01 0.01 0.01 0.02 0.02 0.02 0.02 0.03 0.03 0.03 0.02 0.02 0.03 0.03 0.03 0.03 0.04
0.00 0.00 0.00 0.00 0.00 0.01 0.01 0.01 0.01 0.01 0.01 0.01 0.01 0.01 0.01 0.01 0.00 0.00 0.00 0.00 0.00 0.00 0.00 0.01 0.01 0.01 0.01 0.01 0.02 0.02 0.02 0.02 0.03 0.03 0.03 0.03 0.03 0.02 0.02 0.02 0.02 0.02 0.02 0.02
0.00 0.00 0.00 0.00 0.00 0.00 0.01 0.01 0.01 0.01 0.00 0.01 0.01 0.01 0.01 0.01 0.01 0.01 0.01 0.01 0.00 0.00 0.00 0.00 0.01 0.01 0.02 0.02 0.02 0.02 0.02 0.03 0.03 0.03 0.03 0.03 0.03 0.02 0.02 0.02 0.02 0.01 0.01 0.01
0.00 0.00 0.00 0.00 0.00 0.01 0.01 0.01 0.01 0.01 0.00 0.00 0.01 0.01 0.01 0.01 0.01 0.01 0.01 0.00 0.00 0.00 0.00 0.00 0.01 0.01 0.01 0.01 0.02 0.02 0.02 0.03 0.02 0.02 0.02 0.03 0.03 0.03 0.02 0.02 0.02 0.01 0.01 0.01
0.00 0.00 0.00 0.00 0.00 0.01 0.01 0.00 0.00 0.00 0.00 0.00 0.00 0.00 0.01 0.01 0.01 0.01 0.00 0.00 0.00 0.00 0.00 0.00 0.01 0.01 0.01 0.01 0.01 0.02 0.02 0.02 0.02 0.02 0.02 0.02 0.03 0.04 0.04 0.03 0.03 0.02 0.02 0.02
0.00 0.00 0.00 0.00 0.00 0.00 0.00 0.00 0.00 0.00 0.00 0.00 0.00 0.01 0.01 0.01 0.01 0.01 0.01 0.01 0.01 0.01 0.01 0.01 0.01 0.01 0.01 0.01 0.02 0.02 0.02 0.02 0.02 0.02 0.03 0.03 0.02 0.02 0.02 0.02 0.03 0.02 0.02 0.02
0.00 0.00 0.00 0.00 0.00 0.00 0.00 0.00 0.00 0.00 0.00 0.00 0.00 0.00 0.00 0.00 0.01 0.01 0.01 0.01 0.01 0.01 0.01 0.01 0.02 0.01 0.01 0.01 0.01 0.01 0.02 0.01 0.01 0.01 0.01 0.02 0.02 0.01 0.01 0.01 0.01 0.01 0.01 0.01
0.00 0.00 0.00 0.00 0.00 0.00 0.00 0.00 0.00 0.00 0.00 0.00 0.00 0.00 0.00 0.00 0.00 0.00 0.00 0.01 0.01 0.01 0.01 0.01 0.01 0.01 0.01 0.01 0.01 0.01 0.01 0.01 0.01 0.01 0.01 0.01 0.01 0.01 0.01 0.01 0.00 0.00 0.00 0.01
0.00 0.00 0.00 0.00 0.00 0.00 0.00 0.00 0.00 0.00 0.00 0.00 0.00 0.00 0.00 0.00 0.00 0.00 0.00 0.00 0.00 0.00 0.00 0.00 0.00 0.00 0.01 0.01 0.01 0.00 0.00 0.01 0.01 0.01 0.01 0.01 0.01 0.01 0.01 0.00 0.00 0.01 0.01 0.01
0.01 0.01 0.00 0.00 0.00 0.00 0.00 0.00 0.00 0.00 0.00 0.00 0.00 0.00 0.00 0.00 0.00 0.00 0.00 0.00 0.00 0.00 0.00 0.00 0.00 0.00 0.01 0.01 0.02 0.01 0.01 0.01 0.01 0.00 0.01 0.01 0.01 0.01 0.01 0.01 0.01 0.01 0.01 0.01
0.01 0.00 0.00 0.00 0.00 0.00 0.00 0.00 0.00 0.00 0.00 0.00 0.00 0.00 0.00 0.00 0.00 0.00 0.00 0.00 0.00 0.00 0.00 0.00 0.00 0.00 0.00 0.01 0.01 0.01 0.01 0.01 0.01 0.01 0.01 0.01 0.01 0.01 0.01 0.01 0.01 0.01 0.01 0.02
0.01 0.01 0.01 0.01 0.01 0.00 0.00 0.00 0.00 0.00 0.00 0.00 0.00 0.00 0.00 0.00 0.00 0.00 0.00 0.00 0.00 0.00 0.00 0.00 0.00 0.00 0.00 0.00 0.00 0.01 0.01 0.01 0.01 0.01 0.01 0.01 0.01 0.01 0.01 0.02 0.02 0.02 0.02 0.02
0.00 0.00 0.01 0.01 0.00 0.00 0.00 0.00 0.00 0.00 0.00 0.00 0.00 0.00 0.00 0.00 0.00 0.00 0.00 0.00 0.00 0.00 0.00 0.00 0.00 0.00 0.00 0.00 0.00 0.00 0.00 0.00 0.01 0.01 0.01 0.01 0.01 0.01 0.02 0.02 0.02 0.02 0.02 0.02
0.00 0.00 0.00 0.00 0.00 0.00 0.00 0.00 0.00 0.00 0.00 0.00 0.00 0.00 0.00 0.00 0.00 0.00 0.00 0.00 0.00 0.00 0.00 0.00 0.00 0.00 0.00 0.00 0.00 0.00 0.01 0.01 0.01 0.01 0.02 0.02 0.02 0.02 0.02 0.02 0.02 0.02 0.01 0.01
0.00 0.00 0.00 0.00 0.00 0.00 0.00 0.00 0.00 0.00 0.00 0.01 0.01 0.00 0.00 0.00 0.00 0.00 0.00 0.00 0.00 0.00 0.00 0.00 0.00 0.00 0.01 0.01 0.01 0.02 0.02 0.02 0.02 0.02 0.02 0.02 0.02 0.01 0.01 0.01 0.01 0.01 0.01 0.01
MSLP
1013.87 1013.58 1013.31 1013.05 1012.77 1012.45 1012.06 1011.58 1011.01 1010.37 1009.69 1009.03 1008.43 1007.92 1007.53 1007.25 1007.07 1006.93 1006.80 1006.62 1006.36 1006.02 1005.60 1005.15 1004.70 1004.32 1004.04 1003.90 1003.91 1004.06 1004.33 1004.68 1005.08 1005.50 1005.91 1006.31 1006.71 1007.12 1007.54 1007.99 1008.46 1008.94 1009.42 1009.89
1013.88 1013.52 1013.12 1012.69 1012.22 1011.70 1011.14 1010.55 1009.94 1009.34 1008.78 1008.30 1007.91 1007.63 1007.46 1007.37 1007.32 1007.26 1007.16 1006.97 1006.68 1006.29 1005.82 1005.33 1004.84 1004.42 1004.10 1003.90 1003.84 1003.90 1004.05 1004.28 1004.55 1004.85 1005.17 1005.50 1005.86 1006.25 1006.68 1007.14 1007.64 1008.15 1008.65 1009.12
1013.83 1013.40 1012.91 1012.35 1011.73 1011.08 1010.41 1009.75 1009.13 1008.57 1008.11 1007.76 1007.54 1007.43 1007.41 1007.44 1007.47 1007.46 1007.37 1007.17 1006.85 1006.44 1005.95 1005.44 1004.95 1004.51 1004.16 1003.92 1003.79 1003.75 1003.79 1003.89 1004.04 1004.21 1004.42 1004.68 1004.99 1005.37 1005.80 1006.29 1006.82 1007.36 1007.88 1008.37
1013.86 1013.37 1012.79 1012.15 1011.44 1010.71 1009.97 1009.28 1008.65 1008.13 1007.73 1007.47 1007.35 1007.33 1007.38 1007.46 1007.53 1007.52 1007.42 1007.21 1006.88 1006.46 1005.99 1005.49 1005.01 1004.58 1004.22 1003.95 1003.75 1003.62 1003.55 1003.52 1003.53 1003.58 1003.69 1003.87 1004.14 1004.49 1004.93 1005.44 1006.00 1006.57 1007.13 1007.64
1014.03 1013.49 1012.86 1012.15 1011.40 1010.61 1009.85 1009.13 1008.50 1007.99 1007.62 1007.39 1007.30 1007.30 1007.36 1007.44 1007.49 1007.46 1007.35 1007.12 1006.80 1006.40 1005.96 1005.50 1005.05 1004.64 1004.29 1003.98 1003.73 1003.51 1003.32 1003.17 1003.04 1002.98 1002.98 1003.08 1003.29 1003.62 1004.06 1004.58 1005.16 1005.77 1006.35 1006.89
1014.35 1013.75 1013.08 1012.35 1011.56 1010.76 1009.98 1009.25 1008.61 1008.10 1007.71 1007.47 1007.34 1007.31 1007.34 1007.37 1007.38 1007.32 1007.18 1006.96 1006.66 1006.30 1005.91 1005.50 1005.10 1004.73 1004.37 1004.04 1003.73 1003.42 1003.12 1002.84 1002.60 1002.41 1002.31 1002.33 1002.48 1002.77 1003.18 1003.70 1004.29 1004.91 1005.51 1006.07
1014.72 1014.09 1013.39 1012.64 1011.84 1011.04 1010.25 1009.52 1008.86 1008.32 1007.90 1007.61 1007.43 1007.33 1007.28 1007.25 1007.21 1007.12 1006.98 1006.78 1006.52 1006.22 1005.89 1005.55 1005.21 1004.86 1004.51 1004.15 1003.78 1003.38 1002.98 1002.58 1002.21 1001.91 1001.70 1001.63 1001.70 1001.93 1002.30 1002.79 1003.36 1003.97 1004.58 1005.14
1014.99 1014.33 1013.61 1012.86 1012.08 1011.28 1010.50 1009.77 1009.11 1008.54 1008.08 1007.72 1007.47 1007.30 1007.19 1007.10 1007.02 1006.92 1006.79 1006.62 1006.42 1006.19 1005.94 1005.67 1005.39 1005.07 1004.73 1004.34 1003.90 1003.42 1002.92 1002.40 1001.92 1001.50 1001.18 1001.00 1000.99 1001.13 1001.43 1001.86 1002.38 1002.95 1003.53 1004.08
1014.99 1014.31 1013.59 1012.86 1012.10 1011.33 1010.58 1009.86 1009.21 1008.62 1008.13 1007.73 1007.43 1007.20 1007.04 1006.92 1006.83 1006.74 1006.64 1006.53 1006.41 1006.26 1006.09 1005.89 1005.66 1005.37 1005.02 1004.60 1004.11 1003.56 1002.96 1002.34 1001.75 1001.22 1000.79 1000.50 1000.38 1000.42 1000.61 1000.94 1001.38 1001.87 1002.40 1002.93
1014.58 1013.90 1013.20 1012.49 1011.78 1011.06 1010.36 1009.69 1009.06 1008.50 1008.01 1007.60 1007.28 1007.04 1006.87 1006.75 1006.67 1006.62 1006.58 1006.54 1006.50 1006.43 1006.34 1006.21 1006.01 1005.74 1005.39 1004.94 1004.40 1003.78 1003.11 1002.41 1001.73 1001.10 1000.57 1000.17 999.93 999.84 999.91 1000.12 1000.44 1000.83 1001.28 1001.75
1013.73 1013.05 1012.38 1011.72 1011.07 1010.43 1009.80 1009.21 1008.65 1008.14 1007.70 1007.33 1007.04 1006.83 1006.69 1006.61 1006.58 1006.58 1006.61 1006.65 1006.69 1006.70 1006.67 1006.58 1006.41 1006.16 1005.80 1005.34 1004.77 1004.11 1003.38 1002.63 1001.88 1001.18 1000.56 1000.07 999.71 999.49 999.43 999.49 999.67 999.94 1000.28 1000.67
1012.49 1011.82 1011.19 1010.60 1010.03 1009.48 1008.96 1008.47 1008.02 1007.62 1007.27 1006.99 1006.77 1006.63 1006.56 1006.54 1006.58 1006.66 1006.76 1006.86 1006.96 1007.02 1007.03 1006.98 1006.83 1006.59 1006.23 1005.76 1005.18 1004.51 1003.77 1003.00 1002.22 1001.48 1000.81 1000.24 999.78 999.45 999.25 999.17 999.20 999.33 999.54 999.84
1011.05 1010.40 1009.82 1009.29 1008.81 1008.38 1007.98 1007.63 1007.31 1007.04 1006.82 1006.66 1006.55 1006.51 1006.52 1006.59 1006.70 1006.84 1006.99 1007.14 1007.28 1007.37 1007.40 1007.35 1007.22 1006.98 1006.63 1006.17 1005.61 1004.97 1004.26 1003.51 1002.75 1002.01 1001.32 1000.71 1000.18 999.76 999.44 999.23 999.11 999.10 999.19 999.36
1009.63 1009.01 1008.47 1008.01 1007.63 1007.31 1007.05 1006.84 1006.67 1006.55 1006.47 1006.44 1006.46 1006.52 1006.63 1006.77 1006.94 1007.13 1007.31 1007.48 1007.62 1007.71 1007.74 1007.69 1007.55 1007.32 1006.99 1006.56 1006.05 1005.46 1004.82 1004.13 1003.44 1002.75 1002.08 1001.47 1000.91 1000.43 1000.02 999.70 999.46 999.32 999.27 999.32
1008.47 1007.87 1007.38 1006.98 1006.68 1006.47 1006.34 1006.26 1006.24 1006.26 1006.32 1006.42 1006.55 1006.71 1006.90 1007.10 1007.30 1007.50 1007.69 1007.85 1007.96 1008.03 1008.03 1007.96 1007.81 1007.59 1007.29 1006.91 1006.47 1005.97 1005.42 1004.85 1004.25 1003.64 1003.05 1002.47 1001.92 1001.41 1000.95 1000.55 1000.22 999.96 999.79 999.71
1007.73 1007.15 1006.69 1006.35 1006.12 1006.00 1005.96 1006.00 1006.10 1006.24 1006.42 1006.63 1006.85 1007.09 1007.32 1007.55 1007.76 1007.95 1008.11 1008.23 1008.30 1008.32 1008.28 1008.18 1008.03 1007.82 1007.56 1007.24 1006.88 1006.49 1006.06 1005.60 1005.12 1004.63 1004.12 1003.62 1003.11 1002.62 1002.15 1001.70 1001.30 1000.96 1000.69 1000.49
1007.46 1006.90 1006.47 1006.17 1005.99 1005.93 1005.97 1006.09 1006.28 1006.51 1006.77 1007.05 1007.33 1007.61 1007.86 1008.09 1008.29 1008.45 1008.56 1008.62 1008.63 1008.59 1008.51 1008.39 1008.22 1008.03 1007.80 1007.55 1007.28 1006.99 1006.68 1006.35 1006.00 1005.63 1005.23 1004.81 1004.37 1003.92 1003.46 1003.01 1002.58 1002.18 1001.83 1001.54
1007.63 1007.09 1006.68 1006.40 1006.25 1006.23 1006.31 1006.48 1006.71 1006.99 1007.30 1007.61 1007.92 1008.21 1008.46 1008.67 1008.83 1008.94 1009.00 1009.00 1008.96 1008.87 1008.75 1008.60 1008.43 1008.25 1008.06 1007.87 1007.68 1007.48 1007.28 1007.06 1006.82 1006.56 1006.26 1005.93 1005.56 1005.17 1004.75 1004.32 1003.89 1003.47 1003.08 1002.72
1008.10 1007.58 1007.18 1006.92 1006.78 1006.77 1006.86 1007.04 1007.29 1007.58 1007.90 1008.22 1008.52 1008.80 1009.03 1009.21 1009.33 1009.40 1009.41 1009.37 1009.28 1009.16 1009.01 1008.85 1008.68 1008.51 1008.36 1008.21 1008.08 1007.95 1007.82 1007.68 1007.52 1007.34 1007.13 1006.87 1006.58 1006.25 1005.88 1005.49 1005.09 1004.68 1004.28 1003.90
1008.69 1008.19 1007.80 1007.53 1007.40 1007.38 1007.46 1007.63 1007.87 1008.15 1008.45 1008.76 1009.04 1009.30 1009.50 1009.65 1009.75 1009.78 1009.76 1009.69 1009.58 1009.45 1009.29 1009.13 1008.96 1008.81 1008.68 1008.56 1008.46 1008.37 1008.28 1008.18 1008.08 1007.95 1007.79 1007.59 1007.36 1007.09 1006.78 1006.44 1006.08 1005.71 1005.33 1004.95
1009.22 1008.73 1008.36 1008.09 1007.95 1007.91 1007.98 1008.13 1008.34 1008.60 1008.88 1009.16 1009.42 1009.65 1009.83 1009.96 1010.04 1010.06 1010.03 1009.96 1009.85 1009.72 1009.57 1009.42 1009.27 1009.14 1009.01 1008.90 1008.81 1008.73 1008.65 1008.57 1008.48 1008.37 1008.24 1008.08 1007.89 1007.66 1007.41 1007.13 1006.82 1006.50 1006.16 1005.80
1009.57 1009.12 1008.75 1008.49 1008.34 1008.29 1008.34 1008.46 1008.65 1008.88 1009.13 1009.38 1009.62 1009.83 1010.00 1010.13 1010.20 1010.23 1010.21 1010.15 1010.06 1009.95 1009.82 1009.69 1009.56 1009.44 1009.32 1009.21 1009.12 1009.02 1008.93 1008.84 1008.74 1008.63 1008.51 1008.36 1008.19 1008.01 1007.80 1007.57 1007.31 1007.04 1006.74 1006.43
1009.72 1009.29 1008.94 1008.69 1008.55 1008.49 1008.53 1008.63 1008.80 1009.01 1009.23 1009.46 1009.68 1009.88 1010.04 1010.16 1010.23 1010.27 1010.27 1010.24 1010.18 1010.10 1010.00 1009.90 1009.79 1009.68 1009.57 1009.46 1009.35 1009.24 1009.13 1009.02 1008.90 1008.77 1008.64 1008.50 1008.35 1008.18 1008.00 1007.80 1007.59 1007.35 1007.09 1006.80
1009.68 1009.28 1008.97 1008.74 1008.61 1008.56 1008.60 1008.70 1008.85 1009.04 1009.25 1009.45 1009.65 1009.83 1009.98 1010.09 1010.17 1010.22 1010.24 1010.23 1010.19 1010.14 1010.08 1010.00 1009.92 1009.83 1009.72 1009.62 1009.50 1009.38 1009.26 1009.13 1008.99 1008.86 1008.71 1008.56 1008.41 1008.25 1008.08 1007.89 1007.69 1007.46 1007.20 1006.92
1009.54 1009.19 1008.92 1008.73 1008.62 1008.59 1008.64 1008.74 1008.89 1009.06 1009.25 1009.44 1009.61 1009.77 1009.89 1009.99 1010.06 1010.10 1010.12 1010.12 1010.10 1010.08 1010.04 1009.99 1009.93 1009.86 1009.77 1009.68 1009.58 1009.46 1009.34 1009.20 1009.06 1008.92 1008.77 1008.61 1008.44 1008.27 1008.08 1007.87 1007.64 1007.38 1007.09 1006.77
1009.40 1009.10 1008.88 1008.74 1008.67 1008.68 1008.74 1008.85 1009.00 1009.16 1009.33 1009.49 1009.63 1009.74 1009.83 1009.89 1009.93 1009.95 1009.95 1009.95 1009.93 1009.91 1009.89 1009.86 1009.82 1009.78 1009.73 1009.66 1009.59 1009.49 1009.39 1009.27 1009.14 1009.00 1008.84 1008.66 1008.47 1008.26 1008.03 1007.76 1007.47 1007.14 1006.77 1006.37
1009.34 1009.11 1008.95 1008.86 1008.84 1008.88 1008.97 1009.09 1009.23 1009.38 1009.52 1009.64 1009.73 1009.80 1009.83 1009.84 1009.83 1009.81 1009.77 1009.74 1009.71 1009.68 1009.66 1009.65 1009.64 1009.63 1009.62 1009.60 1009.56 1009.51 1009.44 1009.35 1009.24 1009.10 1008.93 1008.73 1008.50 1008.23 1007.92 1007.57 1007.17 1006.72 1006.24 1005.72
Thickness
5681 5688 5689 5688 5689 5689 5682 5676 5666 5670 5672 5679 5683 5686 5688 5689 5688 5686 5684 5683 5682 5680 5678 5676 5673 5671 5669 5667 5666 5665 5661 5657 5654 5653 5651 5648 5646 5644 5642 5640 5638 5635 5633 5630
5675 5684 5684 5681 5685 5686 5683 5681 5676 5674 5673 5683 5684 5682 5680 5680 5680 5679 5677 5677 5677 5675 5672 5669 5667 5665 5663 5661 5660 5658 5654 5651 5649 5647 5644 5642 5640 5638 5636 5634 5632 5630 5627 5625
5658 5672 5673 5663 5676 5678 5678 5680 5677 5668 5672 5677 5675 5675 5674 5674 5674 5673 5672 5671 5669 5667 5665 5664 5662 5660 5657 5656 5654 5652 5649 5646 5643 5640 5638 5636 5634 5631 5629 5628 5626 5624 5621 5619
5649 5656 5645 5663 5682 5682 5676 5674 5677 5674 5673 5674 5674 5673 5672 5671 5668 5666 5666 5664 5662 5660 5659 5658 5657 5654 5652 5650 5647 5645 5642 5640 5637 5634 5631 5629 5626 5625 5623 5621 5619 5618 5616 5614
5640 5639 5646 5663 5675 5675 5668 5663 5671 5669 5669 5669 5668 5664 5661 5665 5665 5662 5660 5658 5656 5655 5653 5651 5649 5648 5645 5642 5640 5638 5635 5633 5631 5628 5625 5622 5619 5617 5616 5614 5611 5610 5609 5607
5635 5634 5632 5653 5672 5678 5668 5652 5665 5665 5663 5661 5658 5645 5647 5657 5657 5655 5654 5652 5650 5648 5646 5644 5642 5640 5637 5634 5631 5630 5629 5627 5624 5621 5618 5615 5613 5611 5609 5606 5604 5603 5601 5599
5628 5627 5635 5655 5666 5669 5645 5646 5660 5660 5657 5654 5649 5646 5649 5651 5650 5648 5647 5645 5644 5641 5638 5637 5635 5633 5628 5625 5624 5623 5622 5619 5616 5613 5611 5608 5605 5602 5600 5597 5595 5594 5592 5591
5622 5620 5628 5654 5656 5648 5646 5653 5654 5654 5652 5650 5646 5646 5644 5643 5642 5641 5639 5638 5636 5632 5630 5629 5627 5624 5619 5616 5616 5615 5613 5609 5607 5605 5603 5600 5596 5593 5590 5588 5585 5584 5582 5580
5626 5628 5640 5646 5648 5650 5650 5647 5647 5646 5645 5643 5640 5637 5637 5635 5634 5633 5632 5631 5628 5625 5622 5620 5618 5615 5611 5609 5608 5606 5602 5599 5597 5595 5593 5590 5587 5584 5581 5579 5576 5575 5572 5570
5623 5629 5636 5639 5641 5644 5644 5643 5642 5642 5640 5638 5633 5631 5629 5628 5626 5625 5624 5621 5619 5616 5613 5610 5609 5607 5604 5602 5600 5597 5593 5589 5587 5584 5582 5580 5578 5576 5573 5570 5567 5566 5563 5561
5616 5623 5627 5630 5633 5635 5635 5636 5635 5634 5633 5630 5627 5624 5621 5619 5617 5616 5614 5612 5610 5607 5604 5601 5600 5597 5595 5593 5591 5587 5584 5580 5577 5575 5572 5569 5567 5565 5563 5562 5560 5558 5555 5553
5611 5619 5617 5619 5626 5629 5627 5627 5627 5626 5624 5622 5621 5617 5614 5610 5609 5607 5605 5603 5600 5598 5595 5593 5591 5589 5587 5586 5583 5579 5575 5571 5568 5565 5562 5559 5556 5554 5553 5552 5552 5551 5549 5547
5617 5620 5618 5619 5620 5621 5620 5619 5619 5619 5616 5612 5611 5609 5606 5603 5600 5598 5596 5593 5590 5588 5586 5584 5582 5580 5578 5576 5573 5569 5566 5563 5559 5556 5553 5550 5548 5545 5542 5541 5540 5539 5538 5537
5614 5613 5610 5611 5611 5613 5612 5611 5610 5609 5607 5605 5601 5599 5597 5594 5591 5589 5586 5584 5581 5579 5576 5574 5571 5569 5569 5567 5563 5560 5556 5554 5551 5547 5544 5541 5538 5536 5534 5531 5528 5527 5526 5526
5607 5607 5605 5605 5604 5603 5602 5600 5598 5595 5594 5593 5591 5589 5586 5583 5581 5579 5577 5574 5571 5568 5566 5563 5561 5559 5558 5556 5553 5550 5547 5544 5541 5538 5535 5532 5529 5526 5524 5522 5519 5517 5515 5514
5597 5598 5597 5595 5593 5592 5591 5589 5587 5585 5584 5582 5580 5578 5577 5574 5572 5569 5567 5564 5561 5557 5555 5553 5551 5550 5548 5546 5543 5540 5536 5535 5533 5529 5525 5521 5519 5516 5513 5511 5508 5506 5504 5503
5588 5586 5585 5584 5582 5582 5581 5580 5579 5577 5575 5572 5570 5569 5567 5564 5560 5557 5556 5554 5551 5548 5546 5543 5541 5540 5538 5536 5533 5530 5527 5525 5523 5519 5515 5512 5509 5507 5504 5501 5499 5497 5495 5495
5582 5581 5579 5577 5575 5572 5571 5570 5569 5567 5564 5563 5561 5559 5556 5552 5549 5547 5545 5543 5540 5537 5535 5532 5531 5529 5527 5525 5522 5519 5517 5514 5512 5509 5507 5504 5501 5498 5495 5493 5490 5488 5486 5485
5574 5572 5570 5568 5566 5564 5561 5559 5558 5556 5555 5553 5551 5548 5545 5542 5539 5537 5534 5531 5528 5526 5524 5522 5521 5518 5516 5514 5512 5509 5507 5504 5502 5500 5497 5495 5492 5489 5486 5483 5481 5479 5478 5477
5563 5563 5561 5559 5557 5554 5552 5550 5548 5546 5544 5543 5541 5538 5534 5532 5529 5527 5524 5520 5518 5515 5514 5512 5510 5508 5506 5504 5502 5499 5497 5494 5492 5489 5487 5484 5482 5480 5477 5475 5473 5471 5469 5468
5553 5552 5551 5549 5547 5546 5543 5541 5538 5536 5535 5533 5531 5527 5524 5521 5519 5516 5513 5510 5509 5506 5504 5503 5501 5499 5497 5495 5493 5490 5487 5485 5482 5480 5478 5476 5473 5471 5469 5466 5464 5462 5460 5459
5542 5541 5540 5539 5537 5535 5533 5530 5528 5527 5525 5523 5521 5517 5514 5511 5508 5506 5503 5501 5500 5498 5495 5493 5491 5490 5488 5486 5482 5480 5477 5475 5472 5470 5468 5466 5464 5462 5460 5458 5456 5454 5452 5450
5531 5531 5530 5528 5526 5524 5522 5520 5518 5517 5515 5513 5510 5507 5504 5502 5498 5495 5494 5493 5490 5489 5486 5483 5482 5482 5479 5475 5472 5470 5468 5465 5463 5461 5459 5458 5456 5453 5451 5449 5447 5445 5443 5441
5522 5521 5520 5518 5516 5513 5511 5509 5508 5507 5505 5503 5501 5498 5495 5492 5488 5487 5485 5485 5483 5480 5477 5475 5474 5473 5470 5465 5463 5460 5458 5456 5454 5452 5450 5449 5446 5444 5442 5440 5438 5437 5435 5433
5513 5512 5510 5508 5505 5503 5502 5500 5498 5496 5494 5492 5490 5488 5486 5483 5480 5478 5476 5475 5474 5471 5468 5467 5466 5463 5459 5456 5454 5451 5449 5447 5445 5443 5441 5439 5437 5435 5433 5431 5430 5428 5426 5424
5504 5503 5501 5500 5497 5495 5492 5490 5488 5486 5483 5481 5479 5478 5476 5473 5471 5469 5467 5466 5464 5463 5459 5457 5455 5453 5450 5448 5446 5444 5441 5439 5436 5434 5433 5431 5429 5427 5426 5424 5422 5420 5418 5416
5494 5492 5491 5489 5487 5485 5483 5481 5478 5476 5474 5472 5470 5468 5465 5463 5461 5459 5458 5456 5455 5453 5451 5449 5446 5444 5442 5440 5438 5436 5433 5431 5429 5427 5425 5423 5421 5419 5418 5416 5415 5413 5411 5409